Weather History for Medford, WI

Change the Weather History Date:

Thursday, October 25, 2012

  Actual Average Record
Temperature  
Mean Temperature 48 °F -  
Max Temperature 62 °F 52 °F 75 °F (1989)
Min Temperature 33 °F 32 °F 17 °F (1957)
Degree Days  
Heating Degree Days 18    
Moisture  
Dew Point 44 °F    
Average Humidity 90    
Maximum Humidity 94    
Minimum Humidity 75    
Precipitation  
Precipitation 0.00 in - - ()
Sea Level Pressure  
Sea Level Pressure 29.70 in    
Wind  
Wind Speed 9 mph (NW)    
Max Wind Speed 21 mph    
Max Gust Speed 48 mph    
Visibility 8 miles    
Events Rain    
Averages and records for this station are not official NWS values.
T = Trace of Precipitation, MM = Missing Value Source: NWS Daily Summary

Daily Weather History Graph

Daily Weather History Graph

Search for Another Location

Airport:

Trip Planner

Search our weather history database for the weather conditions in past years. The results will help you decide how hot, cold, wet, or windy it might be!

Date:

Astronomy

Oct. 25, 2012 Rise Set
Actual Time 7:30 AM CDT 5:58 PM CDT
Civil Twilight 7:00 AM CDT 6:28 PM CDT
Nautical Twilight 6:26 AM CDT 7:03 PM CDT
Astronomical Twilight 5:52 AM CDT 7:37 PM CDT
Moon 3:53 PM CDT (10/25) 3:17 AM CDT (10/25)
Length of Visible Light 11h 28m
Length of Day
10h 27m
Waxing Gibbous, 84% of the Moon is Illuminated
Oct 25
Waxing Gibbous
Oct 29
Full
Nov 6
Last Quarter
Nov 13
New
Nov 20
First Quarter

Hourly Weather History & Observations

Time (CDT) Temp. Windchill Dew Point Humidity Pressure Visibility Wind Dir Wind Speed Gust Speed Precip Events Conditions
12:15 AM 62.6 °F - 59.0 °F 88% 29.69 in 10.0 mi North 3.5 mph - N/A   Overcast
12:35 AM 60.8 °F - 59.0 °F 94% 29.68 in 10.0 mi North 3.5 mph - N/A   Overcast
12:55 AM 60.8 °F - 59.0 °F 94% 29.67 in 7.0 mi ENE 3.5 mph - N/A Rain Rain
1:15 AM 60.8 °F - 59.0 °F 94% 29.64 in 5.0 mi ENE 5.8 mph - N/A Rain Rain
1:35 AM 60.8 °F - 59.0 °F 94% 29.63 in 4.0 mi North 4.6 mph - N/A Rain Rain
1:55 AM 60.8 °F - 59.0 °F 94% 29.64 in 4.0 mi North 3.5 mph - N/A Rain Heavy Rain
2:35 AM 60.8 °F - 59.0 °F 94% 29.60 in 5.0 mi ESE 10.4 mph - N/A   Overcast
2:55 AM 57.2 °F - 55.4 °F 94% 29.63 in 10.0 mi WNW 11.5 mph - N/A Rain Light Rain
3:15 AM 57.2 °F - 55.4 °F 94% 29.64 in 10.0 mi NNW 8.1 mph - N/A   Mostly Cloudy
3:35 AM 55.4 °F - 53.6 °F 94% 29.62 in 10.0 mi North 4.6 mph - N/A Rain Rain
3:55 AM 55.4 °F - 53.6 °F 94% 29.64 in 7.0 mi East 5.8 mph - N/A Rain Light Rain
4:15 AM 55.4 °F - 53.6 °F 94% 29.59 in 10.0 mi NE 9.2 mph - N/A Rain Light Rain
4:35 AM 55.4 °F - 53.6 °F 94% 29.61 in 10.0 mi ESE 8.1 mph - N/A Rain Light Rain
4:55 AM 55.4 °F - 53.6 °F 94% 29.61 in 10.0 mi ENE 5.8 mph - N/A Rain Light Rain
5:15 AM 55.4 °F - 53.6 °F 94% 29.57 in 10.0 mi ENE 6.9 mph - N/A Rain Light Rain
5:35 AM 55.4 °F - 53.6 °F 94% 29.56 in 10.0 mi ENE 5.8 mph - N/A Rain Light Rain
5:55 AM 55.4 °F - 53.6 °F 94% 29.55 in 10.0 mi ENE 4.6 mph - N/A Rain Light Rain
6:55 AM 57.2 °F - 55.4 °F 94% 29.54 in 7.0 mi NNW 3.5 mph 9.2 mph N/A Rain Rain
7:15 AM 57.2 °F - 55.4 °F 94% 29.53 in 4.0 mi Calm Calm - N/A Rain Rain
7:35 AM 57.2 °F - 55.4 °F 94% 29.47 in 2.0 mi East 9.2 mph - N/A Rain Light Rain
7:55 AM 55.4 °F - 53.6 °F 94% 29.59 in 1.2 mi WSW 17.3 mph 48.3 mph N/A Rain Heavy Rain
8:35 AM 51.8 °F - 48.2 °F 88% 29.51 in 10.0 mi North 9.2 mph 16.1 mph N/A Rain Light Rain
8:55 AM 51.8 °F - 48.2 °F 88% 29.55 in 3.0 mi NNE 3.5 mph - N/A Rain Heavy Rain
9:15 AM 51.8 °F - 48.2 °F 88% 29.54 in 10.0 mi Calm Calm - N/A Rain Light Rain
9:55 AM 51.8 °F - 50.0 °F 94% 29.54 in 10.0 mi Calm Calm - N/A Rain Light Rain
10:55 AM 51.8 °F - 50.0 °F 94% 29.54 in 10.0 mi WNW 6.9 mph 11.5 mph N/A Rain Rain
11:15 AM 51.8 °F - 48.2 °F 88% 29.53 in 10.0 mi NW 6.9 mph - N/A Rain Rain
11:35 AM 50.0 °F - 48.2 °F 94% 29.55 in 10.0 mi NNW 3.5 mph - N/A Rain Light Rain
11:55 AM 50.0 °F - 48.2 °F 94% 29.54 in 10.0 mi NW 10.4 mph - N/A Rain Light Rain
12:15 PM 50.0 °F - 48.2 °F 94% 29.56 in 7.0 mi WNW 5.8 mph 17.3 mph N/A Rain Light Rain
12:35 PM 48.2 °F - 46.4 °F 93% 29.56 in 5.0 mi NW 12.7 mph - N/A Rain Light Rain
12:55 PM 48.2 °F - 46.4 °F 93% 29.56 in 5.0 mi NW 18.4 mph - N/A Rain Light Rain
1:35 PM 46.4 °F 39.8 °F 44.6 °F 93% 29.58 in 3.0 mi NW 16.1 mph 20.7 mph N/A Rain Light Rain
1:55 PM 46.4 °F 38.7 °F 42.8 °F 87% 29.59 in 3.0 mi WNW 20.7 mph 27.6 mph N/A Rain Rain
2:15 PM 42.8 °F 35.8 °F 41.0 °F 93% 29.61 in 4.0 mi WNW 13.8 mph 23.0 mph N/A Rain Light Rain
2:35 PM 42.8 °F 35.4 °F 39.2 °F 87% 29.63 in 5.0 mi NW 15.0 mph 23.0 mph N/A Rain Rain
3:15 PM 41.0 °F 31.6 °F 39.2 °F 93% 29.66 in 5.0 mi NW 20.7 mph 28.8 mph N/A   Light Drizzle
3:35 PM 41.0 °F 32.5 °F 37.4 °F 87% 29.66 in 10.0 mi NNW 17.3 mph 25.3 mph N/A   Overcast
3:55 PM 39.2 °F 31.2 °F 37.4 °F 93% 29.68 in 10.0 mi NW 13.8 mph 27.6 mph N/A   Overcast
4:15 PM 39.2 °F 31.2 °F 37.4 °F 93% 29.70 in 3.0 mi NW 13.8 mph 25.3 mph N/A   Overcast
4:35 PM 39.2 °F 29.6 °F 37.4 °F 93% 29.72 in 2.5 mi WNW 19.6 mph 27.6 mph N/A   Overcast
4:55 PM 39.2 °F 31.2 °F 35.6 °F 87% 29.73 in 2.0 mi NW 13.8 mph 24.2 mph N/A   Overcast
5:15 PM 37.4 °F 29.8 °F 35.6 °F 93% 29.75 in 5.0 mi WNW 11.5 mph 21.9 mph N/A   Overcast
5:35 PM 37.4 °F 27.8 °F 35.6 °F 93% 29.76 in 2.5 mi WNW 17.3 mph 26.5 mph N/A   Overcast
5:55 PM 37.4 °F 28.2 °F 35.6 °F 93% 29.77 in 10.0 mi NW 16.1 mph 26.5 mph N/A   Light Drizzle
6:15 PM 37.4 °F 28.5 °F 35.6 °F 93% 29.79 in 10.0 mi WNW 15.0 mph - N/A   Overcast
6:35 PM 37.4 °F 27.8 °F 35.6 °F 93% 29.82 in 10.0 mi WNW 17.3 mph 25.3 mph N/A   Overcast
6:55 PM 37.4 °F 27.5 °F 35.6 °F 93% 29.84 in 10.0 mi WNW 18.4 mph 26.5 mph N/A   Overcast
7:15 PM 35.6 °F 24.5 °F 33.8 °F 93% 29.86 in 10.0 mi WNW 20.7 mph 27.6 mph N/A   Overcast
7:35 PM 35.6 °F 25.5 °F 33.8 °F 93% 29.88 in 10.0 mi WNW 17.3 mph 24.2 mph N/A   Overcast
7:55 PM 35.6 °F 25.9 °F 33.8 °F 93% 29.90 in 10.0 mi WNW 16.1 mph 23.0 mph N/A   Overcast
8:15 PM 35.6 °F 25.2 °F 32.0 °F 87% 29.90 in 10.0 mi WNW 18.4 mph 21.9 mph N/A   Overcast
8:35 PM 35.6 °F 26.6 °F 32.0 °F 87% 29.92 in 10.0 mi WNW 13.8 mph 27.6 mph N/A   Overcast
8:55 PM 35.6 °F 25.5 °F 30.2 °F 81% 29.93 in 10.0 mi WNW 17.3 mph 25.3 mph N/A   Overcast
9:15 PM 35.6 °F 24.8 °F 30.2 °F 81% 29.94 in 10.0 mi WNW 19.6 mph 28.8 mph N/A   Mostly Cloudy
9:35 PM 35.6 °F 25.2 °F 30.2 °F 81% 29.95 in 10.0 mi WNW 18.4 mph 23.0 mph N/A   Scattered Clouds
9:55 PM 35.6 °F 27.5 °F 30.2 °F 81% 29.95 in 10.0 mi WNW 11.5 mph - N/A   Clear
10:15 PM 33.8 °F 25.3 °F 30.2 °F 87% 29.96 in 10.0 mi West 11.5 mph 18.4 mph N/A   Scattered Clouds
10:35 PM 35.6 °F 27.1 °F 30.2 °F 81% 29.97 in 10.0 mi West 12.7 mph 19.6 mph N/A   Mostly Cloudy
10:55 PM 35.6 °F 26.6 °F 30.2 °F 81% 29.98 in 10.0 mi WNW 13.8 mph 19.6 mph N/A   Overcast
11:15 PM 35.6 °F 25.9 °F 28.4 °F 75% 29.99 in 10.0 mi West 16.1 mph 19.6 mph N/A   Mostly Cloudy
11:35 PM 35.6 °F 26.6 °F 28.4 °F 75% 29.99 in 10.0 mi West 13.8 mph 18.4 mph N/A   Scattered Clouds
11:55 PM 35.6 °F 27.1 °F 28.4 °F 75% 30.01 in 10.0 mi West 12.7 mph 18.4 mph N/A   Scattered Clouds